Powrót do katalogu

STARLINK-35753

AktywnyŁącznośćVLEO
NORAD 66232·PAYLOAD·🇺🇸 United States

Wystrzelony Oct 28, 2025 z Vandenberg Space Force Base

Loading…

Następne Przeloty (najbliższe 24 godziny)

TLE

ŚwieżeSource: CelesTrak SupGP

Epoka: Sep 14, 2026, 22:30 UTC

1 66232C 25244AC  26257.93798611  .00047857  00000+0  14144-2 0  2575
2 66232  53.1588  69.4523 0001181  85.9445 295.3346 15.34356535    19

Śledź STARLINK-35753 w czasie rzeczywistym z AllMySat

Download on the App Store